EN

Hourly Weather Abu

Today, 27 November, Friday

Time Temperature Precipitation Wind Pressure Humidity
00:00 +16°C° 0 mm 3 mps 694 mmHg 51%
01:00 +14°C° 0 mm 3 mps 694 mmHg 51%
02:00 +14°C° 0 mm 3 mps 694 mmHg 51%
03:00 +13°C° 0 mm 3 mps 694 mmHg 52%
04:00 +13°C° 0 mm 3 mps 694 mmHg 54%
05:00 +12°C° 0 mm 3 mps 694 mmHg 56%
06:00 +13°C° 0 mm 3 mps 694 mmHg 54%
07:00 +14°C° 0 mm 3 mps 695 mmHg 53%
08:00 +16°C° 0 mm 3 mps 696 mmHg 51%
09:00 +18°C° 0 mm 4 mps 697 mmHg 44%
10:00 +20°C° 0 mm 4 mps 697 mmHg 37%
11:00 +23°C° 0 mm 4 mps 698 mmHg 30%
12:00 +25°C° 0 mm 4 mps 697 mmHg 28%
13:00 +25°C° 0 mm 3 mps 697 mmHg 26%
14:00 +26°C° 0 mm 3 mps 696 mmHg 23%
15:00 +25°C° 0 mm 3 mps 696 mmHg 26%
16:00 +24°C° 0 mm 3 mps 695 mmHg 29%
17:00 +21°C° 0 mm 3 mps 695 mmHg 31%
18:00 +20°C° 0 mm 3 mps 695 mmHg 33%
19:00 +18°C° 0 mm 3 mps 696 mmHg 35%
20:00 +17°C° 0 mm 3 mps 696 mmHg 36%
21:00 +16°C° 0 mm 3 mps 696 mmHg 37%
22:00 +16°C° 0 mm 2 mps 696 mmHg 37%
23:00 +15°C° 0 mm 2 mps 696 mmHg 38%

Tomorrow, 28 November, Saturday

Time Temperature Precipitation Wind Pressure Humidity
00:00 +15°C° 0 mm 2 mps 695 mmHg 39%
01:00 +13°C° 0 mm 3 mps 695 mmHg 40%
02:00 +13°C° 0 mm 3 mps 695 mmHg 41%
03:00 +13°C° 0 mm 3 mps 694 mmHg 42%
04:00 +13°C° 0 mm 2 mps 694 mmHg 42%
05:00 +13°C° 0 mm 2 mps 694 mmHg 43%
06:00 +13°C° 0 mm 2 mps 695 mmHg 41%
07:00 +14°C° 0 mm 2 mps 695 mmHg 39%
08:00 +15°C° 0 mm 2 mps 696 mmHg 37%
09:00 +18°C° 0 mm 2 mps 696 mmHg 32%
10:00 +20°C° 0 mm 2 mps 697 mmHg 27%
11:00 +24°C° 0 mm 2 mps 697 mmHg 22%
12:00 +25°C° 0 mm 2 mps 696 mmHg 20%
13:00 +25°C° 0 mm 2 mps 696 mmHg 19%
14:00 +26°C° 0 mm 2 mps 695 mmHg 17%
15:00 +25°C° 0 mm 2 mps 694 mmHg 19%
16:00 +23°C° 0 mm 2 mps 694 mmHg 22%
17:00 +21°C° 0 mm 3 mps 693 mmHg 24%
18:00 +19°C° 0 mm 2 mps 694 mmHg 25%
19:00 +18°C° 0 mm 2 mps 694 mmHg 25%
20:00 +17°C° 0 mm 2 mps 694 mmHg 25%
21:00 +16°C° 0 mm 2 mps 694 mmHg 26%
22:00 +15°C° 0 mm 2 mps 693 mmHg 27%
23:00 +15°C° 0 mm 2 mps 693 mmHg 28%

Day after tomorrow, 29 November, Sunday

Time Temperature Precipitation Wind Pressure Humidity
00:00 +15°C° 0 mm 2 mps 693 mmHg 29%
01:00 +14°C° 0 mm 1 mps 693 mmHg 30%
02:00 +14°C° 0 mm 1 mps 693 mmHg 31%
03:00 +14°C° 0 mm 1 mps 692 mmHg 31%
04:00 +14°C° 0 mm 2 mps 692 mmHg 31%
05:00 +13°C° 0 mm 2 mps 692 mmHg 31%
06:00 +15°C° 0 mm 1 mps 693 mmHg 30%
07:00 +16°C° 0 mm 1 mps 694 mmHg 29%
08:00 +18°C° 0 mm 1 mps 695 mmHg 28%
09:00 +21°C° 0 mm 1 mps 695 mmHg 24%
10:00 +23°C° 0 mm 1 mps 695 mmHg 20%
11:00 +24°C° 0 mm 0 mps 696 mmHg 16%
12:00 +24°C° 0 mm 0 mps 695 mmHg 15%
13:00 +27°C° 0 mm 1 mps 695 mmHg 14%
14:00 +28°C° 0 mm 1 mps 694 mmHg 13%
15:00 +26°C° 0 mm 1 mps 694 mmHg 15%
16:00 +25°C° 0 mm 1 mps 693 mmHg 17%
17:00 +23°C° 0 mm 1 mps 693 mmHg 20%
18:00 +22°C° 0 mm 1 mps 693 mmHg 21%
19:00 +20°C° 0 mm 1 mps 693 mmHg 22%
20:00 +18°C° 0 mm 2 mps 693 mmHg 22%
21:00 +18°C° 0 mm 1 mps 693 mmHg 23%
22:00 +16°C° 0 mm 1 mps 693 mmHg 24%
23:00 +16°C° 0 mm 1 mps 693 mmHg 25%

30 November, Monday

Time Temperature Precipitation Wind Pressure Humidity
00:00 +16°C° 0 mm 1 mps 692 mmHg 26%
01:00 +15°C° 0 mm 1 mps 692 mmHg 26%
02:00 +15°C° 0 mm 1 mps 692 mmHg 27%
03:00 +15°C° 0 mm 1 mps 692 mmHg 28%
04:00 +14°C° 0 mm 1 mps 692 mmHg 28%
05:00 +14°C° 0 mm 1 mps 691 mmHg 29%
06:00 +16°C° 0 mm 1 mps 692 mmHg 29%
07:00 +18°C° 0 mm 1 mps 693 mmHg 28%
08:00 +20°C° 0 mm 1 mps 694 mmHg 28%
09:00 +22°C° 0 mm 1 mps 694 mmHg 24%
10:00 +23°C° 0 mm 0 mps 695 mmHg 20%
11:00 +25°C° 0 mm 0 mps 695 mmHg 15%
12:00 +28°C° 0 mm 1 mps 695 mmHg 14%
13:00 +28°C° 0 mm 1 mps 694 mmHg 13%
14:00 +29°C° 0 mm 1 mps 694 mmHg 12%
15:00 +27°C° 0 mm 1 mps 693 mmHg 14%
16:00 +26°C° 0 mm 2 mps 693 mmHg 17%
17:00 +24°C° 0 mm 2 mps 692 mmHg 19%
18:00 +23°C° 0 mm 2 mps 693 mmHg 20%
19:00 +20°C° 0 mm 2 mps 693 mmHg 21%
20:00 +19°C° 0 mm 1 mps 693 mmHg 21%
21:00 +19°C° 0 mm 1 mps 693 mmHg 22%
22:00 +18°C° 0 mm 1 mps 693 mmHg 22%
23:00 +18°C° 0 mm 1 mps 693 mmHg 22%

1 December, Tuesday

Time Temperature Precipitation Wind Pressure Humidity
00:00 +18°C° 0 mm 1 mps 692 mmHg 23%
01:00 +16°C° 0 mm 1 mps 692 mmHg 23%
02:00 +16°C° 0 mm 1 mps 692 mmHg 24%
03:00 +16°C° 0 mm 1 mps 692 mmHg 24%
04:00 +15°C° 0 mm 1 mps 692 mmHg 25%
05:00 +15°C° 0 mm 1 mps 692 mmHg 25%
06:00 +16°C° 0 mm 1 mps 692 mmHg 25%
07:00 +19°C° 0 mm 1 mps 693 mmHg 26%
08:00 +20°C° 0 mm 1 mps 694 mmHg 26%
09:00 +23°C° 0 mm 1 mps 694 mmHg 22%
10:00 +25°C° 0 mm 1 mps 695 mmHg 18%
11:00 +28°C° 0 mm 1 mps 695 mmHg 14%
12:00 +29°C° 0 mm 1 mps 695 mmHg 13%
13:00 +29°C° 0 mm 1 mps 694 mmHg 12%
14:00 +30°C° 0 mm 2 mps 693 mmHg 11%
15:00 +28°C° 0 mm 2 mps 693 mmHg 13%
16:00 +26°C° 0 mm 2 mps 693 mmHg 15%
17:00 +25°C° 0 mm 2 mps 692 mmHg 17%
18:00 +23°C° 0 mm 2 mps 692 mmHg 17%
19:00 +21°C° 0 mm 2 mps 692 mmHg 17%
20:00 +19°C° 0 mm 2 mps 692 mmHg 17%
21:00 +20°C° 0 mm 1 mps 692 mmHg 18%
22:00 +19°C° 0 mm 1 mps 692 mmHg 19%
23:00 +18°C° 0 mm 1 mps 692 mmHg 19%

2 December, Wednesday

Time Temperature Precipitation Wind Pressure Humidity
00:00 +18°C° 0 mm 1 mps 692 mmHg 20%
01:00 +18°C° 0 mm 1 mps 692 mmHg 22%
02:00 +16°C° 0 mm 1 mps 692 mmHg 23%
03:00 +16°C° 0 mm 1 mps 691 mmHg 24%
04:00 +16°C° 0 mm 1 mps 691 mmHg 25%
05:00 +16°C° 0 mm 1 mps 691 mmHg 26%
06:00 +18°C° 0 mm 1 mps 692 mmHg 27%
07:00 +19°C° 0 mm 1 mps 693 mmHg 27%
08:00 +21°C° 0 mm 1 mps 694 mmHg 27%
09:00 +23°C° 0 mm 1 mps 694 mmHg 23%
10:00 +26°C° 0 mm 1 mps 695 mmHg 19%
11:00 +28°C° 0 mm 1 mps 695 mmHg 15%
12:00 +29°C° 0 mm 1 mps 694 mmHg 14%
13:00 +30°C° 0 mm 2 mps 694 mmHg 13%
14:00 +30°C° 0 mm 2 mps 693 mmHg 13%
15:00 +28°C° 0 mm 2 mps 692 mmHg 15%
16:00 +27°C° 0 mm 2 mps 692 mmHg 17%
17:00 +25°C° 0 mm 2 mps 692 mmHg 20%
18:00 +24°C° 0 mm 2 mps 692 mmHg 20%
19:00 +21°C° 0 mm 2 mps 692 mmHg 21%
20:00 +20°C° 0 mm 2 mps 692 mmHg 21%
21:00 +20°C° 0 mm 1 mps 692 mmHg 22%
22:00 +19°C° 0 mm 1 mps 692 mmHg 23%
23:00 +19°C° 0 mm 1 mps 692 mmHg 24%
Show more